Regional Weather Roundup
Issued by NWS

Home | Current Version | Previous Version | Text Only | Print | Product List | Glossary On
Versions: 1 2 3 4 5 6 7 8 9 10 11 12 13 14 15 16 17 18 19 20 21 22 23 24 25 26 27
000
ASUS44 KLIX 210113
RWRLA
LOUISIANA WEATHER ROUNDUP
NATIONAL WEATHER SERVICE NEW ORLEANS LA
700 PM CST FRI JAN 20 2017

NOTE: "FAIR" INDICATES FEW OR NO CLOUDS BELOW 12,000 FEET WITH NO
      SIGNIFICANT WEATHER AND/OR OBSTRUCTIONS TO VISIBILITY.
      SKY/WX - SKY CONDITION AND SIGNIFICANT WEATHER.
      TMP - AIR TEMPERATURE.    DP   - DEWPOINT TEMPERATURE.
      RH  - RELATIVE HUMIDITY.  PRES - PRESSURE.
      HX  - HEAT INDEX.         WCI  - WIND CHILL INDEX.

*  THESE STATIONS ARE NOT NWS OR FAA STATIONS AND ARE NOT UNDER
   NWS QUALITY CONTROL.

LAZ040-048-061>063-065-066-069-210200-
SOUTHEAST LOUISIANA

CITY           SKY/WX    TMP DP  RH WIND       PRES   REMARKS
N.O. AUDUBON   NOT AVBL
N.O. INTL ARPT CLOUDY    71  67  87 S8        29.78S
N.O. LAKEFRONT MOCLDY    72  68  87 S7        29.79R
N.O. DOWNTOWN*   N/A     73  69  87 S6        29.79S
RESERVE*       FAIR      72  70  91 S7        29.78R
SLIDELL        PTCLDY    70  68  93 S6        29.78R
BATON ROUGE    CLOUDY    70  60  70 CALM      29.75S
BOOTHVILLE     FOG       69  69 100 S8        29.82S VSB 3/4
BELLE CHASSE   MOCLDY    71  69  93 S8        29.78R
BOGALUSA*      FAIR      65  60  86 CALM      29.80R
GALLIANO*      PTCLDY    71  68  89 SE8       29.78F
NEW ROADS*     FAIR      69  59  71 CALM      29.76R
GONZALES*      FAIR      70  64  79 S3        29.76R
HAMMOND*       CLOUDY    66  61  82 CALM      29.77S
HOUMA*         MOCLDY    71  70  97 SE7       29.77F
PORT FOURCHON* FOG       72  70  94 SE8       29.78F VSB 1

$$

LAZ041-044-053-054-210200-
SOUTHWEST LOUISIANA

CITY           SKY/WX    TMP DP  RH WIND       PRES   REMARKS
LAKE CHARLES   CLOUDY    68  66  93 S5        29.73F
LAFAYETTE      CLOUDY    71  68  90 S6        29.76R
PATTERSON      CLOUDY    70  68  93 S6        29.77S
SALT POINT     NOT AVBL
NEW IBERIA     CLOUDY    68  64  87 SE5       29.77R
CHENAULT AIRPK MOCLDY    68  66  94 S5        29.74S

$$

LAZ027-028-210200-
CENTRAL LOUISIANA

CITY           SKY/WX    TMP DP  RH WIND       PRES   REMARKS
FORT POLK      MOCLDY    68  60  77 SE7       29.71S
ALEXANDRIA INT MOCLDY    66  60  81 SE7       29.71R
ALEXANDRIA     CLOUDY    67  60  78 S6        29.73S

$$

LAZ001-002-210200-
NORTHWEST LOUISIANA

CITY           SKY/WX    TMP DP  RH WIND       PRES   REMARKS
SHREVEPORT     MOCLDY    64  55  72 S6        29.67S
BARKSDALE AFB  MOCLDY    64  55  73 S8        29.68S
DTN SHREVEPORT MOCLDY    68  55  63 S12       29.67S

$$

LAZ014-016-210200-
NORTHEAST LOUISIANA

CITY           SKY/WX    TMP DP  RH WIND       PRES   REMARKS
MONROE         CLOUDY    66  53  63 SE5       29.71S
TALLULAH       PTCLDY    66  54  65 S6        29.73F

$$





USA.gov is the U.S. government's official web portal to all federal, state and local government web resources and services.